Altus, OK

10:19 PM CDT on August 25, 2016 (GMT -0500)
Altus Municipal

Weather History for KAXS - July, 2012

Change the Weather History Date:

Tuesday, July 17, 2012

  Actual Average (KLTS) Record (KLTS)
Temperature  
Mean Temperature 86 °F -  
Max Temperature 102 °F 96 °F 105 °F (2001)
Min Temperature 69 °F 71 °F 60 °F (2014)
Cooling Degree Days 20    
Growing Degree Days 36 (Base 50)    
Moisture  
Dew Point 57 °F    
Average Humidity 40    
Maximum Humidity 78    
Minimum Humidity 16    
Precipitation  
Precipitation 0.00 in - - ()
Sea Level Pressure  
Sea Level Pressure 29.91 in    
Wind  
Wind Speed 11 mph (South)    
Max Wind Speed 22 mph    
Max Gust Speed 31 mph    
Visibility 10 miles    
Events      
Averages and records for this station are not official NWS values.
T = Trace of Precipitation, MM = Missing Value Source: NWS Daily Summary

Daily Weather History Graph

Daily Weather History Graph

Search for Another Location

Airport or City:

Trip Planner

Search our weather history database for the weather conditions in past years. The results will help you decide how hot, cold, wet, or windy it might be!

Date:

Astronomy

Jul. 17, 2012 Rise Set
Actual Time 6:37 AM CDT 8:49 PM CDT
Civil Twilight 6:08 AM CDT 9:18 PM CDT
Nautical Twilight 5:33 AM CDT 9:53 PM CDT
Astronomical Twilight 4:55 AM CDT 10:31 PM CDT
Moon 5:15 AM CDT (7/17) 7:41 PM CDT (7/17)
Length of Visible Light 15h 09m
Length of Day
14h 12m
Waning Crescent, 2% of the Moon is Illuminated
Jul 17
Waning Crescent
Jul 18
New
Jul 26
First Quarter
Aug 1
Full
Aug 9
Last Quarter

Hourly Weather History & Observations

Time (CDT) Temp. Heat Index Dew Point Humidity Pressure Visibility Wind Dir Wind Speed Gust Speed Precip Events Conditions
12:15 AM 80.6 °F 81.1 °F 59.0 °F 48% 29.92 in 10.0 mi SSE 8.1 mph - N/A   Clear
12:35 AM 80.6 °F 81.1 °F 59.0 °F 48% 29.92 in 10.0 mi SSE 10.4 mph - N/A   Clear
12:55 AM 78.8 °F - 59.0 °F 51% 29.92 in 10.0 mi SSE 6.9 mph - N/A   Clear
1:15 AM 78.8 °F - 60.8 °F 54% 29.92 in 10.0 mi South 5.8 mph - N/A   Clear
1:35 AM 78.8 °F - 60.8 °F 54% 29.92 in 10.0 mi South 9.2 mph - N/A   Clear
1:55 AM 78.8 °F - 60.8 °F 54% 29.92 in 10.0 mi South 9.2 mph - N/A   Clear
2:15 AM 78.8 °F - 60.8 °F 54% 29.92 in 10.0 mi South 8.1 mph - N/A   Clear
2:35 AM 77.0 °F - 59.0 °F 54% 29.93 in 10.0 mi South 8.1 mph - N/A   Clear
2:55 AM 77.0 °F - 59.0 °F 54% 29.92 in 10.0 mi South 10.4 mph - N/A   Clear
3:15 AM 77.0 °F - 59.0 °F 54% 29.92 in 10.0 mi South 6.9 mph - N/A   Clear
3:35 AM 77.0 °F - 59.0 °F 54% 29.92 in 10.0 mi South 6.9 mph - N/A   Clear
3:55 AM 77.0 °F - 59.0 °F 54% 29.92 in 10.0 mi South 6.9 mph - N/A   Clear
4:15 AM 75.2 °F - 59.0 °F 57% 29.91 in 10.0 mi SSE 5.8 mph - N/A   Clear
4:35 AM 71.6 °F - 60.8 °F 69% 29.92 in 10.0 mi ESE 5.8 mph - N/A   Clear
4:55 AM 71.6 °F - 59.0 °F 64% 29.92 in 10.0 mi ESE 5.8 mph - N/A   Clear
5:15 AM 71.6 °F - 60.8 °F 69% 29.92 in 10.0 mi ESE 5.8 mph - N/A   Clear
5:35 AM 71.6 °F - 60.8 °F 69% 29.92 in 10.0 mi ESE 5.8 mph - N/A   Clear
5:55 AM 69.8 °F - 60.8 °F 73% 29.93 in 10.0 mi ESE 8.1 mph - N/A   Clear
6:15 AM 71.6 °F - 60.8 °F 69% 29.94 in 10.0 mi ESE 6.9 mph - N/A   Clear
6:35 AM 69.8 °F - 62.6 °F 78% 29.93 in 10.0 mi SE 6.9 mph - N/A   Clear
6:55 AM 69.8 °F - 62.6 °F 78% 29.94 in 10.0 mi SE 8.1 mph - N/A   Clear
7:15 AM 71.6 °F - 62.6 °F 73% 29.94 in 10.0 mi SE 8.1 mph - N/A   Clear
7:35 AM 73.4 °F - 62.6 °F 69% 29.94 in 10.0 mi SE 9.2 mph - N/A   Clear
7:55 AM 73.4 °F - 62.6 °F 69% 29.95 in 10.0 mi SSE 9.2 mph - N/A   Clear
8:15 AM 77.0 °F - 62.6 °F 61% 29.95 in 10.0 mi SSE 9.2 mph - N/A   Clear
8:35 AM 78.8 °F - 62.6 °F 57% 29.96 in 10.0 mi South 9.2 mph - N/A   Clear
8:55 AM 80.6 °F 81.8 °F 62.6 °F 54% 29.96 in 10.0 mi South 12.7 mph - N/A   Clear
9:15 AM 80.6 °F 81.8 °F 62.6 °F 54% 29.97 in 10.0 mi South 11.5 mph - N/A   Clear
9:35 AM 82.4 °F 83.4 °F 62.6 °F 51% 29.97 in 10.0 mi SSW 12.7 mph - N/A   Clear
9:55 AM 86.0 °F 86.6 °F 62.6 °F 45% 29.97 in 10.0 mi SSW 12.7 mph 17.3 mph N/A   Clear
10:15 AM 86.0 °F 86.1 °F 60.8 °F 43% 29.96 in 10.0 mi SSW 16.1 mph - N/A   Clear
10:35 AM 87.8 °F 87.6 °F 60.8 °F 40% 29.96 in 10.0 mi SSW 16.1 mph 21.9 mph N/A   Clear
10:55 AM 89.6 °F 89.5 °F 60.8 °F 38% 29.96 in 10.0 mi South 13.8 mph - N/A   Clear
11:15 AM 89.6 °F 89.5 °F 60.8 °F 38% 29.96 in 10.0 mi SSW 15.0 mph 18.4 mph N/A   Clear
11:35 AM 91.4 °F 91.4 °F 60.8 °F 36% 29.96 in 10.0 mi South 15.0 mph 20.7 mph N/A   Clear
11:55 AM 91.4 °F 91.4 °F 60.8 °F 36% 29.96 in 10.0 mi South 12.7 mph 19.6 mph N/A   Clear
12:15 PM 93.2 °F 93.3 °F 60.8 °F 34% 29.95 in 10.0 mi SSW 11.5 mph 21.9 mph N/A   Clear
12:35 PM 95.0 °F 95.2 °F 60.8 °F 32% 29.95 in 10.0 mi South 16.1 mph - N/A   Clear
12:55 PM 95.0 °F 94.4 °F 59.0 °F 30% 29.94 in 10.0 mi South 12.7 mph 17.3 mph N/A   Clear
1:15 PM 96.8 °F 95.8 °F 57.2 °F 27% 29.94 in 10.0 mi South 12.7 mph 25.3 mph N/A   Clear
1:35 PM 96.8 °F 95.1 °F 55.4 °F 25% 29.93 in 10.0 mi South 16.1 mph 23.0 mph N/A   Clear
1:55 PM 98.6 °F 96.4 °F 53.6 °F 22% 29.93 in 10.0 mi South 20.7 mph 25.3 mph N/A   Clear
2:15 PM 98.6 °F 96.4 °F 53.6 °F 22% 29.92 in 10.0 mi SSW 15.0 mph 23.0 mph N/A   Clear
2:35 PM 98.6 °F - 51.8 °F 21% 29.92 in 10.0 mi South 16.1 mph 25.3 mph N/A   Clear
2:55 PM 100.4 °F - 51.8 °F 20% 29.91 in 10.0 mi South 18.4 mph 26.5 mph N/A   Clear
3:15 PM 100.4 °F - 51.8 °F 20% 29.90 in 10.0 mi SSW 16.1 mph 25.3 mph N/A   Clear
3:35 PM 102.2 °F - 51.8 °F 18% 29.89 in 10.0 mi South 21.9 mph 31.1 mph N/A   Clear
3:55 PM 100.4 °F - 50.0 °F 18% 29.88 in 10.0 mi South 17.3 mph 27.6 mph N/A   Clear
4:15 PM 100.4 °F - 50.0 °F 18% 29.88 in 10.0 mi South 18.4 mph 23.0 mph N/A   Clear
4:35 PM 100.4 °F - 50.0 °F 18% 29.87 in 10.0 mi South 18.4 mph 23.0 mph N/A   Clear
4:55 PM 100.4 °F - 50.0 °F 18% 29.87 in 10.0 mi South 15.0 mph 24.2 mph N/A   Clear
5:15 PM 100.4 °F - 50.0 °F 18% 29.86 in 10.0 mi SSW 15.0 mph 20.7 mph N/A   Clear
5:35 PM 100.4 °F - 48.2 °F 17% 29.86 in 10.0 mi SSW 15.0 mph 25.3 mph N/A   Clear
5:55 PM 100.4 °F - 46.4 °F 16% 29.85 in 10.0 mi SSW 13.8 mph - N/A   Clear
6:15 PM 100.4 °F - 46.4 °F 16% 29.85 in 10.0 mi South 15.0 mph 18.4 mph N/A   Clear
6:35 PM 100.4 °F - 50.0 °F 18% 29.85 in 10.0 mi South 16.1 mph 20.7 mph N/A   Clear
6:55 PM 100.4 °F - 50.0 °F 18% 29.84 in 10.0 mi South 15.0 mph 20.7 mph N/A   Clear
7:15 PM 98.6 °F - 50.0 °F 19% 29.84 in 10.0 mi South 15.0 mph 20.7 mph N/A   Clear
7:35 PM 98.6 °F - 50.0 °F 19% 29.85 in 10.0 mi South 13.8 mph - N/A   Clear
7:55 PM 98.6 °F - 48.2 °F 18% 29.85 in 10.0 mi South 13.8 mph 23.0 mph N/A   Clear
8:15 PM 96.8 °F - 50.0 °F 20% 29.85 in 10.0 mi South 12.7 mph 17.3 mph N/A   Clear
8:35 PM 96.8 °F - 50.0 °F 20% 29.86 in 10.0 mi South 11.5 mph 17.3 mph N/A   Clear
9:15 PM 91.4 °F - 50.0 °F 24% 29.87 in 10.0 mi SSE 12.7 mph - N/A   Clear
9:35 PM 91.4 °F - 50.0 °F 24% 29.87 in 10.0 mi SSE 10.4 mph - N/A   Clear
9:55 PM 89.6 °F - 51.8 °F 27% 29.88 in 10.0 mi SSE 15.0 mph - N/A   Clear
10:15 PM 89.6 °F 87.7 °F 55.4 °F 31% 29.90 in 10.0 mi SSE 13.8 mph - N/A   Clear
10:35 PM 89.6 °F 87.7 °F 55.4 °F 31% 29.91 in 10.0 mi SSE 13.8 mph - N/A   Clear
10:55 PM 87.8 °F 86.1 °F 55.4 °F 33% 29.92 in 10.0 mi SSE 17.3 mph 21.9 mph N/A   Clear
11:35 PM 87.8 °F 87.6 °F 60.8 °F 40% 29.92 in 10.0 mi SSE 16.1 mph 21.9 mph N/A   Clear
11:55 PM 87.8 °F 87.6 °F 60.8 °F 40% 29.93 in 10.0 mi SSE 17.3 mph 21.9 mph N/A   Clear